Location: Newark
(7.0858°N, 171.3717°E)
Time: 02:51:59
(UTC+00:00)

Transit 4A - Pass Details

Date: 30 November 2020
Orbit: 864 x 980 km, 66.8° (Epoch: 20 January)

Event Time Altitude Azimuth Distance (km) Brightness Sun altitude
Rises 18:05:36 0° 182° (S) 3,534 11.2 -6.7°
Reaches altitude 10° 18:08:17 10° 174° (S) 2,611 10.6 -6.1°
Maximum altitude 18:13:49 37° 108° (ESE) 1,421 9.8 -4.9°
Drops below altitude 10° 18:19:29 10° 43° (NE) 2,679 10.6 -3.5°
Sets 18:22:15 0° 35° (NE) 3,639 11.2 -2.9°
